Location: Unspecified
(40.7945°N, 111.1337°W)
Time: 19:39:56
(UTC-06:00)

Altair - Pass Details

Date: 01 July 2019
Orbit: 1501 x 1683 km, 47.2° (Epoch: 16 August)

Event Time Altitude Azimuth Distance (km) Brightness Sun altitude
Rises 03:21:35 0° 289° (WNW) 4,855 10.0 -20.9°
Reaches altitude 10° 03:26:22 10° 270° (W) 3,894 9.3 -20.5°
Enters shadow 03:29:21 15° 252° (WSW) 3,542 9.0 -20.2°
